Weather History for KALN - March, 2014

Change the Weather History Date:

Tuesday, March 11, 2014

  Actual Average Record
Temperature  
Mean Temperature 60 °F -  
Max Temperature 78 °F 47 °F 78 °F (2014)
Min Temperature 40 °F 31 °F 15 °F (1998)
Degree Days  
Heating Degree Days 6    
Growing Degree Days 10 (Base 50)    
Moisture  
Dew Point 39 °F    
Average Humidity 63    
Maximum Humidity 94    
Minimum Humidity 21    
Precipitation  
Precipitation 0.02 in - - ()
Sea Level Pressure  
Sea Level Pressure 29.62 in    
Wind  
Wind Speed 5 mph (South)    
Max Wind Speed 17 mph    
Max Gust Speed 29 mph    
Visibility 9 miles    
Events Rain , Thunderstorm    
Averages and records for this station are not official NWS values.
T = Trace of Precipitation, MM = Missing Value Source: NWS Daily Summary

Daily Weather History Graph

Daily Weather History Graph

Search for Another Location

Airport or City:

Trip Planner

Search our weather history database for the weather conditions in past years. The results will help you decide how hot, cold, wet, or windy it might be!

Date:

Astronomy

Mar. 11, 2014 Rise Set
Actual Time 7:17 AM CDT 7:03 PM CDT
Civil Twilight 6:51 AM CDT 7:29 PM CDT
Nautical Twilight 6:20 AM CDT 8:00 PM CDT
Astronomical Twilight 5:49 AM CDT 8:31 PM CDT
Moon 2:41 PM CDT (3/11) 4:09 AM CDT (3/11)
Length of Visible Light 12h 38m
Length of Day
11h 45m
Waxing Gibbous, 78% of the Moon is Illuminated
Mar 11
Waxing Gibbous
Mar 16
Full
Mar 23
Last Quarter
Mar 30
New
Apr 7
First Quarter

Hourly Weather History & Observations

Time (CDT) Temp. Windchill Dew Point Humidity Pressure Visibility Wind Dir Wind Speed Gust Speed Precip Events Conditions
12:15 AM 43.2 °F - 36.0 °F 76% 29.71 in 10.0 mi Calm Calm - N/A   Clear
12:35 AM 43.2 °F - 36.3 °F 77% 29.71 in 10.0 mi Calm Calm - N/A   Clear
12:55 AM 42.8 °F - 36.7 °F 79% 29.71 in 10.0 mi Calm Calm - N/A   Clear
1:15 AM 43.2 °F - 36.5 °F 77% 29.71 in 10.0 mi Calm Calm - N/A   Clear
1:35 AM 43.3 °F - 36.7 °F 77% 29.71 in 10.0 mi Calm Calm - N/A   Clear
1:55 AM 44.1 °F - 37.4 °F 77% 29.71 in 10.0 mi Calm Calm - N/A   Clear
2:15 AM 46.0 °F 41.9 °F 37.2 °F 71% 29.71 in 10.0 mi South 8.1 mph - N/A   Clear
2:35 AM 45.5 °F 41.3 °F 36.7 °F 71% 29.70 in 10.0 mi South 8.1 mph - N/A   Clear
2:55 AM 46.9 °F - 36.5 °F 67% 29.70 in 10.0 mi South 10.4 mph - N/A   Clear
3:15 AM 48.2 °F - 36.5 °F 64% 29.69 in 10.0 mi South 10.4 mph - N/A   Clear
3:35 AM 47.3 °F - 36.1 °F 65% 29.68 in 10.0 mi South 10.4 mph - N/A   Clear
3:55 AM 47.3 °F - 36.1 °F 65% 29.68 in 10.0 mi South 9.2 mph - N/A   Clear
4:10 AM 49.1 °F - 36.5 °F 62% 29.67 in 10.0 mi South 8.1 mph - N/A   Clear
4:35 AM 49.5 °F - 36.1 °F 60% 29.67 in 10.0 mi South 5.8 mph - N/A   Clear
4:55 AM 48.6 °F - 36.5 °F 63% 29.67 in 10.0 mi South 6.9 mph - N/A   Clear
5:15 AM 49.5 °F - 36.0 °F 60% 29.66 in 10.0 mi SSE 4.6 mph - N/A   Clear
5:35 AM 47.7 °F - 35.2 °F 62% 29.67 in 10.0 mi SSE 3.5 mph - N/A   Clear
5:55 AM 45.3 °F - 34.5 °F 66% 29.67 in 10.0 mi Calm Calm - N/A   Clear
6:15 AM 45.9 °F 44.6 °F 34.7 °F 65% 29.67 in 10.0 mi SE 3.5 mph - N/A   Clear
6:35 AM 46.8 °F - 34.9 °F 63% 29.67 in 10.0 mi South 4.6 mph - N/A   Clear
6:50 AM 46.4 °F 43.5 °F 35.6 °F 66% 29.67 in 10.0 mi South 5.8 mph - N/A   Scattered Clouds
6:55 AM 47.3 °F - 35.1 °F 62% 29.67 in 10.0 mi SSE 3.5 mph - N/A   Clear
7:50 AM 42.8 °F - 33.8 °F 70% 29.67 in 10.0 mi Calm Calm - N/A   Scattered Clouds
8:50 AM 53.6 °F - 39.2 °F 58% 29.67 in 10.0 mi SSW 5.8 mph - N/A   Scattered Clouds
9:50 AM 62.6 °F - 35.6 °F 37% 29.66 in 10.0 mi SSW 9.2 mph - N/A   Scattered Clouds
10:50 AM 68.0 °F - 37.4 °F 33% 29.65 in 10.0 mi SSW 8.1 mph - N/A   Scattered Clouds
11:50 AM 71.6 °F - 37.4 °F 29% 29.62 in 10.0 mi SSW 8.1 mph - N/A   Scattered Clouds
12:50 PM 75.2 °F - 39.2 °F 27% 29.60 in 10.0 mi Calm Calm - N/A   Scattered Clouds
1:50 PM 77.0 °F - 33.8 °F 21% 29.57 in 10.0 mi South 9.2 mph - N/A   Scattered Clouds
2:50 PM 77.0 °F - 33.8 °F 21% 29.54 in 10.0 mi South 11.5 mph - N/A   Scattered Clouds
4:50 PM 75.2 °F - 37.4 °F 25% 29.50 in 10.0 mi South 13.8 mph - N/A   Scattered Clouds
5:50 PM 69.8 °F - 41.0 °F 35% 29.49 in 10.0 mi ESE 8.1 mph - N/A   Overcast
6:50 PM 68.0 °F - 42.8 °F 40% 29.49 in 10.0 mi SE 11.5 mph - N/A   Overcast
7:50 PM 68.0 °F - 44.6 °F 43% 29.51 in 10.0 mi SE 6.9 mph - N/A   Overcast
8:50 PM 60.8 °F - 55.4 °F 82% 29.47 in 10.0 mi ESE 8.1 mph - N/A   Light Drizzle
9:50 PM 60.8 °F - 55.4 °F 82% 29.47 in 10.0 mi ESE 8.1 mph - N/A   Light Drizzle
10:15 PM 60.8 °F - 55.4 °F 82% 29.49 in 5.0 mi WNW 11.5 mph 18.4 mph N/A Rain Heavy Rain
10:35 PM 53.6 °F - 50.2 °F 88% 29.49 in 3.0 mi North 12.7 mph 25.3 mph N/A Rain Rain
10:55 PM 46.4 °F 40.4 °F 44.1 °F 92% 29.50 in 4.0 mi North 13.8 mph 24.2 mph N/A Rain , Thunderstorm Light Thunderstorms and Rain
11:15 PM 44.4 °F 36.9 °F 42.6 °F 93% 29.53 in 2.0 mi NNW 17.3 mph 25.3 mph 0.01 in Rain Light Rain
11:35 PM 42.1 °F 33.9 °F 40.3 °F 93% 29.50 in 2.5 mi North 17.3 mph 28.8 mph 0.02 in Rain Rain
11:55 PM 40.8 °F 33.7 °F 39.2 °F 94% 29.51 in 5.0 mi North 12.7 mph 21.9 mph 0.02 in Rain Rain